Torna al catalogo

STARLINK-31976

AttivoComunicazioniVLEO
NORAD 59887·PAYLOAD·🇺🇸 United States

Lanciato May 28, 2024 da Cape Canaveral Space Force Station

Loading…

Prossimi Passaggi (prossime 24 ore)

TLE

AggiornatoSource: CelesTrak SupGP

Epoca: Sep 14, 2026, 21:07 UTC

1 59887C 24100C   26257.88034722 -.00023486  00000+0 -85123-3 0  2573
2 59887  43.0024 140.8886 0001338 268.8213 151.5580 15.27568828    10

Traccia STARLINK-31976 in tempo reale con AllMySat

Download on the App Store